[[{"header":{"parameterUnit":"m.s-1","parameterCategory":1,"la1":30.2991,"la2":30.254,"lo1":-89.0895,"lo2":-89.0444,"dy":0.0017,"dx":0.0017,"nx":28,"ny":28,"refTime":"2024-09-03T21:00:00:Z","depth":0,"parameterNumber":2,"parameterNumberName":"U-component_of_WINDS"},"data":[0,0,0,0,0,0,0,0,0,0,0,0,0,0,0,0,0,0,0,0,0,0,0,0,0,0,0,0,0,0,0,0,0,0,0,0,0,0,0,0,0,0,0,0,0,0,0,0,0,0,0,0,0,0,0,0,0,0,-8.6994,-8.6994,0,-8.6943,-8.6943,-8.6942,-8.6729,-8.6724,-8.6719,-8.6715,-8.6665,-8.6668,-8.6672,0,0,0,0,0,0,0,0,0,0,0,0,0,-8.6912,-8.6915,-8.6995,-8.6994,-8.6993,-8.6944,-8.6943,-8.6942,-8.673,-8.6724,-8.6718,-8.6712,-8.6664,-8.6668,-8.6672,0,0,0,0,0,0,0,0,0,0,0,0,0,-8.6914,-8.6916,-8.6995,-8.6881,-8.6871,-8.6944,-8.6943,-8.6942,-8.6731,-8.6724,-8.6717,-8.671,-8.6663,-8.6668,-8.6672,-8.6851,0,0,-8.6687,-8.669,0,0,0,0,0,0,0,0,-8.6914,-8.6917,-8.6899,-8.6889,-8.6878,-8.6835,-8.6895,-8.6912,-8.6733,-8.6784,-8.6715,-8.6706,-8.6728,-8.6727,-8.6734,-8.6849,-8.6847,-8.6688,-8.6691,-8.6693,-8.6694,0,0,0,0,0,0,0,-8.6914,-8.6918,-8.6974,-8.6899,-8.6886,-8.6834,-8.6826,-8.6897,-8.6798,-8.6779,-8.6764,-8.6761,-8.6721,-8.673,-8.6731,-8.6846,-8.6688,-8.6692,-8.6695,-8.6697,-8.7104,-8.7112,0,0,0,0,0,0,-8.6929,-8.6919,-8.6976,-8.6973,-8.6878,-8.6842,-8.6833,-8.6856,-8.6797,-8.6781,-8.6767,-8.6751,-8.6725,-8.6725,-8.6728,-8.6931,-8.6693,-8.6698,-8.67,-8.7097,-8.7106,-8.7115,0,0,0,0,0,0,-8.6928,-8.6936,-8.6978,-8.6942,-8.6943,-8.6851,-8.6879,-8.6859,-8.6867,-8.6788,-8.6769,-8.6794,-8.6719,-8.6722,-8.6822,-8.6926,-8.67,-8.6704,-8.7087,-8.71,-8.711,-8.734,0,0,0,0,0,0,-8.6927,-8.6937,-8.7003,-8.6945,-8.6946,-8.7071,-8.6886,-8.6864,-8.6876,-8.6855,-8.6808,-8.6793,-8.6713,-8.6816,-8.6827,-8.6929,-8.6708,-8.7077,-8.7093,-8.7107,-8.7322,-8.7358,-8.7388,0,0,0,0,0,-8.6925,-8.707,-8.7007,-8.7015,-8.7026,-8.7078,-8.7078,-8.6983,-8.6886,-8.6951,-8.69,-8.6794,-8.6915,-8.6828,-8.6838,-8.6944,-8.707,-8.7088,-8.7106,-8.7307,-8.7351,-8.7387,0,0,0,0,0,0,-8.7143,-8.706,-8.699,-8.7121,-8.7108,-8.7042,-8.7121,-8.7032,-8.7047,-8.7026,-8.6909,-8.69,-8.7017,-8.6991,-8.6896,-8.7113,-8.6975,-8.6996,-8.7124,-8.7165,-8.7198,-8.7198,-8.6712,0,0,0,0,0,-8.7207,-8.7255,-8.7181,-8.7304,-8.7301,-8.7214,-8.7233,-8.716,-8.7142,-8.7136,-8.7092,-8.708,-8.7114,-8.7139,-8.7167,-8.732,-8.7305,-8.7398,-8.7431,-8.7459,-8.7476,-8.7553,-8.7592,-8.7173,-8.7173,-8.7172,0,0,-8.7339,-8.7299,-8.7337,-8.7347,-8.7328,-8.7381,-8.721,-8.7273,-8.7311,-8.7146,-8.7235,-8.7205,-8.7184,-8.731,-8.7364,-8.7292,-8.759,-8.7482,-8.7504,-8.7506,-8.7575,-8.7615,-8.765,-8.7185,-8.7183,-8.7181,0,0,-8.7603,-8.758,-8.7678,-8.7664,-8.7638,-8.7579,-8.7604,-8.7552,-8.7524,-8.7614,-8.749,-8.7536,-8.7599,-8.7587,-8.759,-8.7856,-8.7758,-8.787,-8.8039,-8.8116,-8.8149,-8.8177,-8.8268,-8.8303,-8.7889,-8.7889,-8.789,0,-8.7769,-8.7842,-8.774,-8.7811,-8.7819,-8.7674,-8.7772,-8.7764,-8.775,-8.7759,-8.768,-8.7755,-8.7731,-8.7852,-8.7917,-8.7926,-8.7949,-8.787,-8.8152,-8.818,-8.8205,-8.829,-8.8325,-8.7902,-8.7901,-8.79,-8.7898,0,-8.8046,-8.8099,-8.8182,-8.817,-8.8189,-8.8274,-8.8186,-8.8217,-8.8146,-8.8096,-8.819,-8.8157,-8.8174,-8.8199,-8.813,-8.8311,-8.8267,-8.8173,-8.803,-8.826,-8.8337,-8.837,-8.7921,-8.7917,-8.7913,-8.7909,0,0,-8.8439,-8.8373,-8.8405,-8.8397,-8.8361,-8.84,-8.8481,-8.8497,-8.8525,-8.8523,-8.8584,-8.8644,-8.8556,-8.856,-8.8489,-8.8558,-8.8766,-8.8454,-8.8452,-8.8509,-8.896,-8.9026,-8.9066,-8.8705,-8.8711,-8.8715,-8.896,0,-8.8687,-8.8816,-8.8729,-8.8873,-8.892,-8.8786,-8.8855,-8.8841,-8.8799,-8.8834,-8.8788,-8.8829,-8.8713,-8.8713,-8.8776,-8.8728,-8.8854,-8.871,-8.8759,-8.8762,-8.8761,-8.9107,-8.9177,-8.9408,-8.899,-8.8995,-8.8999,0,-8.8991,-8.9,-8.9149,-8.9103,-8.9119,-8.9183,-8.9191,-8.9227,-8.921,-8.9174,-8.9181,-8.9094,-8.917,-8.9036,-8.9138,-8.9041,-8.9058,-8.9039,-8.9045,-8.904,-8.8889,-8.9106,-8.948,-8.9513,-8.9047,-8.9043,-8.904,0,-8.9257,-8.9308,-8.9402,-8.9401,-8.9351,-8.9398,-8.938,-8.9355,-8.9372,-8.9381,-8.939,-8.941,-8.9419,-8.9437,-8.9357,-8.9268,-8.947,-8.9329,-8.944,-8.9442,-8.9481,-8.9479,-8.9858,-8.9505,-8.9504,-8.9504,-8.9503,0,-8.9538,-8.9633,-8.952,-8.9577,-8.968,-8.9582,-8.9687,-8.9655,-8.9635,-8.9684,-8.9573,-8.9622,-8.9518,-8.9558,-8.9498,-8.959,-8.9597,-8.9569,-8.955,-8.9574,-8.9577,-8.9578,-8.9557,-8.9513,-8.9511,-8.9509,-8.9508,0,-8.9848,-8.9777,-8.987,-8.9817,-8.9806,-8.9884,-8.9838,-8.9889,-8.9842,-8.9906,-8.9916,-8.9841,-8.9881,-8.9807,-8.9839,-8.9798,-8.9926,-8.9886,-8.993,-8.9916,-9.0029,-9.0017,-9.0416,-9.0462,-9.0087,-9.009,-9.0093,0,-9.0028,-9.0097,-9.0052,-9.0077,-9.0064,-9.0107,-9.0122,-9.0031,-9.0052,-9.0039,-9.0093,-9.0124,-9.0143,-9.0215,-9.0163,-9.0187,-9.0143,-9.0282,-9.0145,-9.0167,-9.0138,-9.0132,-9.0136,-9.0307,-9.0312,-9.0316,-9.0319,0,-9.0354,-9.0316,-9.0342,-9.0358,-9.038,-9.0388,-9.0388,-9.0415,-9.0319,-9.0349,-9.0388,-9.0404,-9.0437,-9.0468,-9.0481,-9.0463,-9.0374,-9.0364,-9.0389,-9.041,-9.0431,-9.0415,-8.9999,-9.0352,-9.0349,-9.0347,-9.0345,-9.0343,-9.0599,-9.0654,-9.063,-9.0664,-9.0655,-9.0658,-9.0703,-9.0663,-9.0694,-9.0711,-9.0658,-9.071,-9.0693,-9.07,-9.0693,-9.0733,-9.0671,-9.071,-9.0718,-9.0727,-9.0742,-9.0432,-9.0736,-9.0735,-9.0734,-9.0733,-9.0732,0,-9.0913,-9.0893,-9.0925,-9.0928,-9.0956,-9.0874,-9.087,-9.0898,-9.0945,-9.0937,-9.0959,-9.1005,-9.1036,-9.099,-9.1014,-9.1055,-9.1015,-9.1063,-9.1055,-9.1052,-9.0799,-9.0771,-9.1095,-9.1095,-9.1095,-9.1095,-9.1095,-9.1095,-9.1079,-9.1166,-9.1127,-9.121,-9.1188,-9.1237,-9.1242,-9.1245,-9.1238,-9.1294,-9.1319,-9.129,-9.1266,-9.1288,-9.1313,-9.1299,-9.131,-9.1372,-9.1344,-9.1106,-9.107,-9.1036,-9.1009,-9.1377,-9.1378,-9.1591,-9.1594,-9.1595]},{"header":{"parameterUnit":"m.s-1","parameterCategory":1,"la1":30.2991,"la2":30.254,"lo1":-89.0895,"lo2":-89.0444,"dy":0.0017,"dx":0.0017,"nx":28,"ny":28,"refTime":"2024-09-03T21:00:00:Z","depth":0,"parameterNumber":3,"parameterNumberName":"V-component_of_WINDS"},"data":[0,0,0,0,0,0,0,0,0,0,0,0,0,0,0,0,0,0,0,0,0,0,0,0,0,0,0,0,0,0,0,0,0,0,0,0,0,0,0,0,0,0,0,0,0,0,0,0,0,0,0,0,0,0,0,0,0,0,-0.0435,-0.0437,0,-0.0644,-0.0646,-0.0649,-0.0793,-0.0794,-0.0795,-0.0796,-0.101,-0.1014,-0.1019,0,0,0,0,0,0,0,0,0,0,0,0,0,-0.0158,-0.0162,-0.0434,-0.0437,-0.044,-0.0643,-0.0646,-0.0649,-0.0792,-0.0794,-0.0795,-0.0796,-0.1008,-0.1014,-0.1019,0,0,0,0,0,0,0,0,0,0,0,0,0,-0.0313,-0.0163,-0.0434,-0.0536,-0.0547,-0.0643,-0.0646,-0.065,-0.0792,-0.0794,-0.0795,-0.0797,-0.1006,-0.1013,-0.102,-0.1031,0,0,-0.1042,-0.1045,0,0,0,0,0,0,0,0,-0.0304,-0.0323,-0.0518,-0.0529,-0.0542,-0.0694,-0.0627,-0.0778,-0.0792,-0.0699,-0.0796,-0.0798,-0.0903,-0.0919,-0.0955,-0.1041,-0.1051,-0.1042,-0.1046,-0.1049,-0.1051,0,0,0,0,0,0,0,-0.0293,-0.0315,-0.0517,-0.0521,-0.0535,-0.0571,-0.0594,-0.0657,-0.0789,-0.0707,-0.0718,-0.0741,-0.091,-0.0947,-0.0961,-0.1054,-0.1042,-0.1048,-0.1053,-0.1055,-0.116,-0.1158,0,0,0,0,0,0,-0.0267,-0.0305,-0.0511,-0.0524,-0.0424,-0.0574,-0.0601,-0.0643,-0.0789,-0.0813,-0.0739,-0.0747,-0.0935,-0.0952,-0.0969,-0.0991,-0.1049,-0.1056,-0.106,-0.1161,-0.1159,-0.1158,0,0,0,0,0,0,-0.026,-0.0284,-0.0502,-0.0418,-0.0448,-0.0577,-0.0624,-0.0646,-0.0684,-0.0814,-0.0838,-0.0753,-0.0936,-0.0959,-0.1015,-0.1,-0.1059,-0.1066,-0.1163,-0.1161,-0.1159,-0.1035,0,0,0,0,0,0,-0.0252,-0.0281,-0.0286,-0.0417,-0.0452,-0.0544,-0.0623,-0.0649,-0.0696,-0.0708,-0.0833,-0.0855,-0.0939,-0.1003,-0.1021,-0.1011,-0.1071,-0.1165,-0.1162,-0.1159,-0.1041,-0.1029,-0.1018,0,0,0,0,0,-0.0241,-0.0243,-0.0286,-0.031,-0.0462,-0.0543,-0.0563,-0.066,-0.0694,-0.0701,-0.0784,-0.0851,-0.0999,-0.1008,-0.103,-0.1021,-0.1166,-0.1163,-0.1159,-0.1046,-0.1031,-0.1019,0,0,0,0,0,0,-0.0108,-0.0262,-0.0311,-0.0355,-0.0435,-0.0567,-0.0579,-0.0642,-0.0713,-0.0721,-0.0839,-0.0866,-0.0909,-0.0971,-0.0978,-0.1039,-0.1091,-0.1091,-0.0997,-0.0984,-0.0973,-0.0956,-0.1077,0,0,0,0,0,-0.0083,-0.0137,-0.0269,-0.0295,-0.0333,-0.0448,-0.0487,-0.0555,-0.0642,-0.0677,-0.0764,-0.0846,-0.0911,-0.0951,-0.1018,-0.1051,-0.108,-0.1056,-0.1044,-0.1035,-0.1033,-0.1054,-0.1045,-0.1147,-0.1147,-0.1147,0,0,-0.0034,-0.0125,-0.0151,-0.027,-0.034,-0.0392,-0.0476,-0.0527,-0.0567,-0.0685,-0.0742,-0.0809,-0.0908,-0.0952,-0.0976,-0.1005,-0.1012,-0.103,-0.1022,-0.1026,-0.105,-0.104,-0.1031,-0.1145,-0.1145,-0.1146,0,0,0.0031,-0.0044,-0.0073,-0.0141,-0.0246,-0.0323,-0.033,-0.0453,-0.0502,-0.0561,-0.065,-0.0699,-0.0809,-0.0876,-0.0924,-0.0884,-0.0948,-0.0903,-0.0844,-0.0863,-0.0854,-0.0848,-0.0832,-0.0825,-0.0902,-0.0901,-0.0901,0,0.0106,0.0024,-0.008,-0.0127,-0.0176,-0.0285,-0.0315,-0.0377,-0.0497,-0.0529,-0.056,-0.0699,-0.0774,-0.0834,-0.0824,-0.086,-0.0871,-0.0888,-0.0847,-0.0842,-0.0837,-0.0824,-0.0817,-0.0895,-0.0896,-0.0896,-0.0897,0,0.0122,0.0067,0.0055,-0.0058,-0.0109,-0.0147,-0.0256,-0.0295,-0.0359,-0.0432,-0.0491,-0.0585,-0.0672,-0.0692,-0.0754,-0.0761,-0.0775,-0.0825,-0.0879,-0.0819,-0.0808,-0.0804,-0.0886,-0.0888,-0.089,-0.0892,0,0,0.0266,0.0095,0.0093,0.0041,-0.0083,-0.0127,-0.017,-0.0256,-0.0286,-0.0366,-0.0404,-0.0494,-0.0541,-0.0595,-0.0667,-0.0683,-0.0644,-0.0732,-0.0736,-0.0711,-0.0656,-0.0615,-0.0608,-0.0688,-0.0688,-0.0687,-0.0647,0,0.0313,0.0231,0.0136,0.0087,0.0035,-0.007,-0.0107,-0.0186,-0.0256,-0.031,-0.0388,-0.0449,-0.0507,-0.0541,-0.0562,-0.0644,-0.0634,-0.0649,-0.0724,-0.0725,-0.0693,-0.0603,-0.0561,-0.0518,-0.0643,-0.0643,-0.0642,0,0.0357,0.0283,0.0229,0.0111,0.0086,0.0054,-0.0031,-0.0082,-0.0174,-0.0224,-0.0284,-0.036,-0.041,-0.0459,-0.0528,-0.0536,-0.0573,-0.0617,-0.0618,-0.0627,-0.0678,-0.0607,-0.0507,-0.0499,-0.0637,-0.0637,-0.0638,0,0.047,0.0357,0.031,0.0268,0.0128,0.0109,0.005,-0.0044,-0.0089,-0.0164,-0.0194,-0.0274,-0.0317,-0.0376,-0.0472,-0.0499,-0.0531,-0.0588,-0.0572,-0.0569,-0.0573,-0.0571,-0.0474,-0.0599,-0.0599,-0.0599,-0.0599,0,0.0534,0.0505,0.0359,0.033,0.0295,0.0186,0.0155,0.0086,0.0004,-0.0039,-0.0136,-0.0174,-0.0299,-0.0352,-0.0427,-0.0472,-0.0492,-0.0533,-0.0552,-0.0523,-0.0517,-0.0547,-0.0552,-0.0598,-0.0598,-0.0598,-0.0599,0,0.0655,0.0555,0.0498,0.037,0.0338,0.0318,0.0209,0.0177,0.0102,0.0048,0.0029,-0.0089,-0.0157,-0.0258,-0.0356,-0.0407,-0.0439,-0.0473,-0.0408,-0.0419,-0.0397,-0.0397,-0.0315,-0.0309,-0.0438,-0.0437,-0.0436,0,0.0703,0.0679,0.0549,0.0513,0.0458,0.0401,0.0355,0.0246,0.0202,0.0095,0.0077,0.0002,-0.0064,-0.0167,-0.0261,-0.0337,-0.0371,-0.0337,-0.0383,-0.0352,-0.0368,-0.0364,-0.0367,-0.0325,-0.0323,-0.0322,-0.032,0,0.08,0.0752,0.0689,0.0609,0.0557,0.0488,0.0415,0.0391,0.0267,0.0222,0.0152,0.0101,0.0001,-0.0072,-0.016,-0.0221,-0.029,-0.0305,-0.0306,-0.0275,-0.0236,-0.0255,-0.0376,-0.0306,-0.0308,-0.0309,-0.031,-0.031,0.0887,0.0862,0.0767,0.07,0.0633,0.0567,0.0532,0.0452,0.0391,0.0302,0.0241,0.0175,0.0083,-0.0043,-0.01,-0.0153,-0.0183,-0.0184,-0.0183,-0.0181,-0.017,-0.0229,-0.017,-0.0171,-0.0171,-0.0172,-0.0172,0,0.0982,0.0915,0.0855,0.0756,0.0703,0.0641,0.0557,0.0518,0.0461,0.0381,0.0319,0.0239,0.0167,0.0067,-0.0011,-0.0034,-0.0068,-0.0051,-0.0049,-0.0062,-0.014,-0.0131,-0.0022,-0.0022,-0.0023,-0.0023,-0.0023,-0.0023,0.1025,0.0978,0.0919,0.0838,0.0771,0.0706,0.0664,0.0603,0.0539,0.0454,0.0394,0.0329,0.0241,0.0155,0.0088,0.006,0.0036,0.0064,0.0027,-0.0043,-0.0057,-0.007,-0.0062,0.0059,0.0059,0.0109,0.0109,0.011]}]]